Hailey, ID

7:08 PM MDT on April 28, 2017 (GMT -0600)
Friedman Memorial

Weather History for KSUN - April, 2013

Change the Weather History Date:

Tuesday, April 30, 2013

  Actual Average Record
Temperature  
Mean Temperature 38 °F -  
Max Temperature 50 °F 59 °F 80 °F (1998)
Min Temperature 26 °F 34 °F 26 °F (1997)
Degree Days  
Heating Degree Days 27    
Moisture  
Dew Point 10 °F    
Average Humidity 33    
Maximum Humidity 81    
Minimum Humidity 14    
Precipitation  
Precipitation 0.00 in - - ()
Sea Level Pressure  
Sea Level Pressure 29.90 in    
Wind  
Wind Speed 5 mph (NW)    
Max Wind Speed 23 mph    
Max Gust Speed 25 mph    
Visibility 10 miles    
Events      
Averages and records for this station are not official NWS values.
T = Trace of Precipitation, MM = Missing Value Source: NWS Daily Summary

Daily Weather History Graph

Daily Weather History Graph

Search for Another Location

Airport or City:

Trip Planner

Search our weather history database for the weather conditions in past years. The results will help you decide how hot, cold, wet, or windy it might be!

Date:

Astronomy

Apr. 30, 2013 Rise Set
Actual Time 6:30 AM MDT 8:38 PM MDT
Civil Twilight 5:59 AM MDT 9:09 PM MDT
Nautical Twilight 5:21 AM MDT 9:48 PM MDT
Astronomical Twilight 4:38 AM MDT 10:31 PM MDT
Moon 1:07 AM MDT (4/30) 11:02 AM MDT (4/30)
Length of Visible Light 15h 10m
Length of Day
14h 07m
Waning Gibbous, 69% of the Moon is Illuminated
Apr 30
Waning Gibbous
May 2
Last Quarter
May 9
New
May 17
First Quarter
May 24
Full

Hourly Weather History & Observations

Time (MDT) Temp. Windchill Dew Point Humidity Pressure Visibility Wind Dir Wind Speed Gust Speed Precip Events Conditions
12:15 AM 42.8 °F - 17.6 °F 36% 29.80 in 10.0 mi Calm Calm - N/A   Clear
12:35 AM 42.8 °F 39.3 °F 15.8 °F 34% 29.81 in 10.0 mi NNW 5.8 mph - N/A   Clear
12:55 AM 42.8 °F 39.3 °F 12.2 °F 29% 29.80 in 10.0 mi NW 5.8 mph - N/A   Clear
1:15 AM 41.0 °F - 14.0 °F 33% 29.80 in 10.0 mi Calm Calm - N/A   Clear
1:35 AM 39.2 °F - 12.2 °F 33% 29.81 in 10.0 mi Calm Calm - N/A   Clear
1:55 AM 42.8 °F - 10.4 °F 27% 29.80 in 10.0 mi Calm Calm - N/A   Clear
2:15 AM 41.0 °F 37.1 °F 10.4 °F 29% 29.80 in 10.0 mi NNW 5.8 mph - N/A   Clear
2:55 AM 35.6 °F - 10.4 °F 35% 29.81 in 10.0 mi Calm Calm - N/A   Clear
3:15 AM 37.4 °F 33.8 °F 10.4 °F 33% 29.81 in 10.0 mi NW 4.6 mph - N/A   Clear
3:35 AM 37.4 °F 34.9 °F 10.4 °F 33% 29.81 in 10.0 mi NW 3.5 mph - N/A   Clear
3:55 AM 33.8 °F 30.8 °F 8.6 °F 35% 29.81 in 10.0 mi North 3.5 mph - N/A   Clear
4:15 AM 33.8 °F 28.6 °F 10.4 °F 38% 29.81 in 10.0 mi NNW 5.8 mph - N/A   Clear
4:35 AM 32.0 °F 25.6 °F 8.6 °F 38% 29.81 in 10.0 mi NNW 6.9 mph - N/A   Clear
4:55 AM 32.0 °F 24.8 °F 8.6 °F 38% 29.81 in 10.0 mi NNW 8.1 mph - N/A   Clear
5:15 AM 32.0 °F 25.6 °F 8.6 °F 38% 29.81 in 10.0 mi NNW 6.9 mph - N/A   Clear
5:35 AM 32.0 °F 24.2 °F 8.6 °F 38% 29.82 in 10.0 mi NW 9.2 mph - N/A   Clear
5:55 AM 32.0 °F 24.8 °F 10.4 °F 41% 29.82 in 10.0 mi NW 8.1 mph - N/A   Clear
6:15 AM 28.4 °F - 10.4 °F 47% 29.83 in 10.0 mi Calm Calm - N/A   Clear
6:35 AM 28.4 °F - 10.4 °F 47% 29.83 in 10.0 mi Calm Calm - N/A   Clear
6:47 AM 28.4 °F 24.6 °F 8.6 °F 43% 30.83 in 10.0 mi NNW 3.5 mph - N/A   Partly Cloudy
6:55 AM 28.4 °F 24.6 °F 8.6 °F 43% 29.84 in 10.0 mi NNW 3.5 mph - N/A   Clear
7:48 AM 26.6 °F - 6.8 °F 43% 29.86 in 10.0 mi Calm Calm - N/A   Partly Cloudy
8:51 AM 37.4 °F 32.8 °F 6.8 °F 28% 29.87 in 10.0 mi NW 5.8 mph - N/A   Partly Cloudy
9:47 AM 41.0 °F - 8.6 °F 26% 29.87 in 10.0 mi Calm Calm - N/A   Partly Cloudy
10:47 AM 42.8 °F 37.5 °F 8.6 °F 25% 29.87 in 10.0 mi ESE 9.2 mph - N/A   Partly Cloudy
11:47 AM 46.4 °F 43.5 °F 8.6 °F 22% 29.87 in 10.0 mi SSW 5.8 mph - N/A   Partly Cloudy
12:47 PM 48.2 °F - 10.4 °F 22% 29.86 in 10.0 mi South 8.1 mph - N/A   Scattered Clouds
1:47 PM 48.2 °F - 3.2 °F 16% 29.84 in 10.0 mi ESE 9.2 mph - N/A   Scattered Clouds
2:47 PM 50.0 °F - 3.2 °F 15% 29.84 in 10.0 mi NNW 6.9 mph 18.4 mph N/A   Scattered Clouds
3:47 PM 50.0 °F - 1.4 °F 14% 29.86 in 10.0 mi WNW 13.8 mph 20.7 mph N/A   Scattered Clouds
4:47 PM 48.2 °F - 1.4 °F 15% 29.87 in 10.0 mi WNW 15.0 mph 23.0 mph N/A   Scattered Clouds
5:47 PM 48.2 °F - 6.8 °F 19% 29.89 in 10.0 mi NW 17.3 mph 25.3 mph N/A   Partly Cloudy
6:47 PM 46.4 °F 38.3 °F 8.6 °F 22% 29.92 in 10.0 mi WNW 23.0 mph - N/A   Partly Cloudy
7:47 PM 42.8 °F 34.8 °F 10.4 °F 27% 29.95 in 10.0 mi WNW 17.3 mph - N/A   Scattered Clouds
8:47 PM 39.2 °F 32.0 °F 10.4 °F 31% 29.99 in 10.0 mi NW 11.5 mph - N/A   Partly Cloudy
9:47 PM 37.4 °F 29.8 °F 12.2 °F 36% 30.04 in 10.0 mi NW 11.5 mph - N/A   Partly Cloudy
10:47 PM 44.6 °F 40.7 °F 39.2 °F 81% 30.07 in 10.0 mi NW 6.9 mph - N/A   Clear
11:15 PM 35.6 °F 29.2 °F 15.8 °F 44% 30.09 in 10.0 mi NW 8.1 mph - N/A   Scattered Clouds
11:35 PM 35.6 °F 27.1 °F 14.0 °F 41% 30.09 in 10.0 mi NNW 12.7 mph 17.3 mph N/A   Clear
11:55 PM 35.6 °F 26.2 °F 14.0 °F 41% 30.10 in 10.0 mi NNW 15.0 mph 20.7 mph N/A   Clear